Weather History for Soldotna, AK

Change the Weather History Date:

Sunday, November 3, 2013

  Actual Average Record
Temperature  
Mean Temperature 40 °F -  
Max Temperature 48 °F 34 °F 53 °F (1962)
Min Temperature 33 °F 19 °F -9 °F (1975)
Degree Days  
Heating Degree Days 24    
Moisture  
Dew Point 32 °F    
Average Humidity 68    
Maximum Humidity 81    
Minimum Humidity 57    
Precipitation  
Precipitation 0.00 in - - ()
Sea Level Pressure  
Sea Level Pressure 29.67 in    
Wind  
Wind Speed 3 mph (ENE)    
Max Wind Speed 12 mph    
Max Gust Speed 16 mph    
Visibility 10 miles    
Events      
Averages and records for this station are not official NWS values.
T = Trace of Precipitation, MM = Missing Value Source: NWS Daily Summary

Daily Weather History Graph

Daily Weather History Graph

Search for Another Location

Airport:

Trip Planner

Search our weather history database for the weather conditions in past years. The results will help you decide how hot, cold, wet, or windy it might be!

Date:

Astronomy

Nov. 03, 2013 Rise Set
Actual Time 8:35 AM AKST 4:59 PM AKST
Civil Twilight 7:48 AM AKST 5:45 PM AKST
Nautical Twilight 6:57 AM AKST 6:36 PM AKST
Astronomical Twilight 6:08 AM AKST 7:25 PM AKST
Moon 8:58 AM AKST (11/3) 5:10 PM AKST (11/3)
Length of Visible Light 9h 57m
Length of Day
8h 24m
New Moon, 0% of the Moon is Illuminated
Nov 3
New Moon
Nov 9
First Quarter
Nov 17
Full
Nov 25
Last Quarter
Dec 2
New

Hourly Weather History & Observations

Time (AKST) Temp. Windchill Dew Point Humidity Pressure Visibility Wind Dir Wind Speed Gust Speed Precip Events Conditions
12:16 AM 41.0 °F 37.1 °F 30.2 °F 65% 29.76 in 10.0 mi East 5.8 mph - N/A   Overcast
12:36 AM 42.8 °F 38.6 °F 30.2 °F 61% 29.76 in 10.0 mi East 6.9 mph - N/A   Overcast
12:56 AM 41.0 °F - 30.2 °F 65% 29.76 in 10.0 mi Calm Calm - N/A   Overcast
1:16 AM 41.0 °F - 30.2 °F 65% 29.76 in 10.0 mi Calm Calm - N/A   Overcast
1:36 AM 39.2 °F - 30.2 °F 70% 29.76 in 10.0 mi Calm Calm - N/A   Mostly Cloudy
1:56 AM 37.4 °F - 30.2 °F 75% 29.77 in 10.0 mi Calm Calm - N/A   Overcast
1:16 AM 37.4 °F - 30.2 °F 75% 29.77 in 10.0 mi Calm Calm - N/A   Mostly Cloudy
1:36 AM 35.6 °F - 28.4 °F 75% 29.77 in 10.0 mi Calm Calm - N/A   Partly Cloudy
1:56 AM 33.8 °F - 28.4 °F 81% 29.77 in 10.0 mi Calm Calm - N/A   Partly Cloudy
2:16 AM 33.8 °F - 28.4 °F 81% 29.77 in 10.0 mi Calm Calm - N/A   Partly Cloudy
2:56 AM 37.4 °F 33.8 °F 30.2 °F 75% 29.75 in 10.0 mi East 4.6 mph - N/A   Clear
3:36 AM 39.2 °F 35.9 °F 30.2 °F 70% 29.75 in 10.0 mi East 4.6 mph - N/A   Mostly Cloudy
3:56 AM 39.2 °F 37.0 °F 30.2 °F 70% 29.74 in 10.0 mi East 3.5 mph - N/A   Overcast
4:16 AM 37.4 °F - 30.2 °F 75% 29.74 in 10.0 mi Calm Calm - N/A   Overcast
4:36 AM 35.6 °F - 30.2 °F 81% 29.74 in 10.0 mi Calm Calm - N/A   Overcast
4:56 AM 37.4 °F - 30.2 °F 75% 29.74 in 10.0 mi Calm Calm - N/A   Overcast
5:16 AM 37.4 °F - 30.2 °F 75% 29.73 in 10.0 mi Calm Calm - N/A   Overcast
5:36 AM 37.4 °F - 30.2 °F 75% 29.73 in 10.0 mi Calm Calm - N/A   Overcast
5:56 AM 37.4 °F - 30.2 °F 75% 29.73 in 10.0 mi Calm Calm - N/A   Overcast
6:16 AM 37.4 °F 34.9 °F 32.0 °F 81% 29.73 in 10.0 mi East 3.5 mph - N/A   Overcast
6:36 AM 37.4 °F - 32.0 °F 81% 29.73 in 10.0 mi Calm Calm - N/A   Overcast
6:56 AM 37.4 °F - 32.0 °F 81% 29.73 in 10.0 mi Calm Calm - N/A   Overcast
7:16 AM 37.4 °F - 32.0 °F 81% 29.72 in 10.0 mi Calm Calm - N/A   Overcast
7:36 AM 39.2 °F 37.0 °F 32.0 °F 75% 29.72 in 10.0 mi ENE 3.5 mph - N/A   Overcast
7:56 AM 37.4 °F 34.9 °F 30.2 °F 75% 29.72 in 10.0 mi ENE 3.5 mph - N/A   Overcast
8:16 AM 37.4 °F 32.8 °F 30.2 °F 75% 29.73 in 10.0 mi SSW 5.8 mph - N/A   Overcast
8:36 AM 41.0 °F - 32.0 °F 70% 29.72 in 10.0 mi Calm Calm - N/A   Overcast
8:56 AM 41.0 °F - 32.0 °F 70% 29.72 in 10.0 mi Calm Calm - N/A   Overcast
9:16 AM 42.8 °F - 32.0 °F 66% 29.72 in 10.0 mi Calm Calm - N/A   Overcast
9:36 AM 41.0 °F - 32.0 °F 70% 29.72 in 10.0 mi Calm Calm - N/A   Overcast
9:56 AM 41.0 °F 38.0 °F 33.8 °F 76% 29.72 in 10.0 mi ENE 4.6 mph - N/A   Overcast
10:16 AM 42.8 °F 40.1 °F 33.8 °F 70% 29.71 in 10.0 mi NNE 4.6 mph - N/A   Overcast
10:36 AM 44.6 °F 42.2 °F 33.8 °F 66% 29.72 in 10.0 mi ESE 4.6 mph - N/A   Overcast
10:56 AM 44.6 °F - 33.8 °F 66% 29.71 in 10.0 mi Calm Calm - N/A   Overcast
11:16 AM 44.6 °F - 33.8 °F 66% 29.71 in 10.0 mi Calm Calm - N/A   Overcast
11:36 AM 44.6 °F - 33.8 °F 66% 29.71 in 10.0 mi Calm Calm - N/A   Mostly Cloudy
11:56 AM 44.6 °F - 33.8 °F 66% 29.71 in 10.0 mi Calm Calm - N/A   Mostly Cloudy
12:16 PM 44.6 °F - 33.8 °F 66% 29.70 in 10.0 mi Calm Calm - N/A   Mostly Cloudy
12:36 PM 44.6 °F 42.2 °F 35.6 °F 71% 29.70 in 10.0 mi West 4.6 mph - N/A   Partly Cloudy
12:56 PM 46.4 °F - 35.6 °F 66% 29.68 in 10.0 mi Calm Calm - N/A   Clear
1:16 PM 48.2 °F - 33.8 °F 58% 29.68 in 10.0 mi NNE 3.5 mph - N/A   Clear
1:36 PM 48.2 °F - 33.8 °F 58% 29.67 in 10.0 mi Calm Calm - N/A   Clear
1:56 PM 48.2 °F - 33.8 °F 58% 29.66 in 10.0 mi NNE 3.5 mph - N/A   Partly Cloudy
2:16 PM 48.2 °F - 33.8 °F 58% 29.66 in 10.0 mi East 9.2 mph - N/A   Partly Cloudy
2:36 PM 48.2 °F - 33.8 °F 58% 29.65 in 10.0 mi NE 3.5 mph - N/A   Clear
2:56 PM 48.2 °F - 33.8 °F 58% 29.65 in 10.0 mi Calm Calm - N/A   Scattered Clouds
3:16 PM 46.4 °F - 33.8 °F 62% 29.64 in 10.0 mi Calm Calm - N/A   Partly Cloudy
3:36 PM 46.4 °F - 33.8 °F 62% 29.63 in 10.0 mi Calm Calm - N/A   Clear
3:56 PM 46.4 °F 45.2 °F 33.8 °F 62% 29.63 in 10.0 mi ENE 3.5 mph - N/A   Clear
4:16 PM 46.4 °F - 33.8 °F 62% 29.62 in 10.0 mi Calm Calm - N/A   Partly Cloudy
4:36 PM 46.4 °F - 33.8 °F 62% 29.62 in 10.0 mi Calm Calm - N/A   Mostly Cloudy
4:56 PM 44.6 °F 43.1 °F 33.8 °F 66% 29.61 in 10.0 mi ENE 3.5 mph - N/A   Overcast
5:16 PM 44.6 °F 40.7 °F 33.8 °F 66% 29.60 in 10.0 mi East 6.9 mph - N/A   Overcast
5:36 PM 44.6 °F 39.2 °F 33.8 °F 66% 29.59 in 10.0 mi East 10.4 mph - N/A   Overcast
5:56 PM 44.6 °F 39.7 °F 33.8 °F 66% 29.59 in 10.0 mi East 9.2 mph - N/A   Overcast
6:16 PM 44.6 °F 39.2 °F 33.8 °F 66% 29.58 in 10.0 mi ENE 10.4 mph - N/A   Overcast
6:36 PM 44.6 °F 38.8 °F 33.8 °F 66% 29.57 in 10.0 mi ENE 11.5 mph - N/A   Overcast
6:56 PM 44.6 °F 38.8 °F 32.0 °F 61% 29.57 in 10.0 mi East 11.5 mph - N/A   Mostly Cloudy
7:16 PM 44.6 °F 38.8 °F 32.0 °F 61% 29.56 in 10.0 mi East 11.5 mph - N/A   Mostly Cloudy
7:36 PM 44.6 °F 38.8 °F 33.8 °F 66% 29.56 in 10.0 mi ENE 11.5 mph - N/A   Overcast
7:56 PM 44.6 °F 39.7 °F 32.0 °F 61% 29.55 in 10.0 mi ENE 9.2 mph - N/A   Overcast
8:16 PM 44.6 °F 38.8 °F 33.8 °F 66% 29.55 in 10.0 mi ENE 11.5 mph 16.1 mph N/A   Overcast
8:36 PM 44.6 °F 39.2 °F 32.0 °F 61% 29.55 in 10.0 mi East 10.4 mph - N/A   Overcast
8:56 PM 44.6 °F 39.2 °F 32.0 °F 61% 29.54 in 10.0 mi East 10.4 mph - N/A   Overcast
9:16 PM 44.6 °F 39.7 °F 32.0 °F 61% 29.54 in 10.0 mi ENE 9.2 mph - N/A   Overcast
9:36 PM 46.4 °F 42.4 °F 32.0 °F 57% 29.53 in 10.0 mi ENE 8.1 mph - N/A   Overcast
9:56 PM 46.4 °F 42.4 °F 32.0 °F 57% 29.53 in 10.0 mi ENE 8.1 mph - N/A   Overcast
10:16 PM 46.4 °F 42.9 °F 32.0 °F 57% 29.52 in 10.0 mi NE 6.9 mph - N/A   Overcast
10:36 PM 46.4 °F 42.4 °F 32.0 °F 57% 29.52 in 10.0 mi NE 8.1 mph - N/A   Overcast
10:56 PM 44.6 °F 40.7 °F 32.0 °F 61% 29.51 in 10.0 mi NNE 6.9 mph - N/A   Overcast